Location: USNO
(38.9242°N, 77.0663°W)
Time: 08:22:35
(UTC-05:00)

Tiangong 1 - Pass Details

Date: 12 October 2017
Orbit: 275 x 302 km, 42.8° (Epoch: 14 December)

Event Time Altitude Azimuth Distance (km) Brightness Sun altitude
Rises 19:29:55 0° 288° (WNW) 2,085 6.3 -11.7°
Reaches altitude 10° 19:32:01 10° 296° (WNW) 1,237 4.7 -12.1°
Maximum altitude 19:34:39 40° 9° (N) 483 1.5 -12.6°
Enters shadow 19:35:46 25° 63° (ENE) 677 1.8 -12.9°
